IW9CTJ-13 Weather Reports


Display with metric or nautical units.
time (UTC)temp
F
wind
direction
speed
MPH
gust
MPH
rain 1hr
in
rain 24hr
in
rain mn
in
humidity
%
barometer
mb
20260510234540 66 273 0.0 10.0 0.00 0.00 0.00 59 1013.8
20260510233038 67 245 4.0 12.0 0.00 0.00 0.00 59 1014.0
20260510231534 66 281 1.0 4.0 0.00 0.00 0.00 61 1013.8
20260510230038 66 296 1.0 4.0 0.00 0.00 0.00 61 1014.0
20260510224536 67 288 1.0 6.0 0.00 0.00 0.00 60 1014.1
20260510223031 67 254 1.0 5.0 0.00 0.00 0.00 60 1014.2
20260510221529 66 271 0.0 3.0 0.00 0.00 0.00 62 1014.1
20260510220025 66 275 0.0 0.0 0.00 0.00 0.00 63 1014.0
20260510214525 66 274 0.0 0.0 0.00 0.00 0.00 65 1014.1
20260510213027 67 267 0.0 0.0 0.00 0.00 0.00 74 1014.3
20260510211525 67 264 0.0 1.0 0.00 0.00 0.00 75 1014.3
20260510210024 67 254 0.0 0.0 0.00 0.00 0.00 72 1014.3
20260510204523 68 136 0.0 0.0 0.00 0.00 0.00 71 1014.3
20260510203023 68 121 0.0 0.0 0.00 0.00 0.00 70 1014.2
20260510201522 68 121 0.0 0.0 0.00 0.00 0.00 70 1014.2
20260510200021 68 121 0.0 0.0 0.00 0.00 0.00 72 1014.3
20260510194529 68 121 0.0 0.0 0.00 0.00 0.00 74 1014.3
20260510193021 68 125 0.0 0.0 0.00 0.00 0.00 75 1014.3
20260510191520 68 114 0.0 0.0 0.00 0.00 0.00 73 1014.2
20260510190037 68 119 0.0 2.0 0.00 0.00 0.00 70 1014.1
20260510184518 68 109 0.0 0.0 0.00 0.00 0.00 69 1013.9
20260510183019 69 115 0.0 0.0 0.00 0.00 0.00 68 1013.7
20260510181518 69 90 0.0 0.0 0.00 0.00 0.00 65 1013.6
20260510180017 69 80 0.0 2.0 0.00 0.00 0.00 65 1013.5
20260510174517 70 78 0.0 1.0 0.00 0.00 0.00 62 1013.5
20260510173022 71 107 0.0 1.0 0.00 0.00 0.00 59 1013.4
20260510171519 72 103 0.0 1.0 0.00 0.00 0.00 50 1013.3
20260510170015 73 86 0.0 2.0 0.00 0.00 0.00 48 1013.3
20260510164518 72 75 0.0 3.0 0.00 0.00 0.00 50 1013.3
20260510163015 73 98 0.0 4.0 0.00 0.00 0.00 50 1013.4
20260510161512 72 52 0.0 0.0 0.00 0.00 0.00 49 1013.5
20260510160010 73 65 0.0 0.0 0.00 0.00 0.00 47 1013.7
20260510154510 74 157 0.0 0.0 0.00 0.00 0.00 45 1013.6
20260510153010 74 132 0.0 0.0 0.00 0.00 0.00 47 1013.8
20260510151508 75 74 0.0 0.0 0.00 0.00 0.00 46 1013.8
20260510150008 75 42 0.0 0.0 0.00 0.00 0.00 45 1013.8
20260510144506 76 79 0.0 0.0 0.00 0.00 0.00 43 1014.0
20260510143006 77 125 0.0 2.0 0.00 0.00 0.00 43 1014.2
20260510141504 79 61 0.0 0.0 0.00 0.00 0.00 40 1014.3
20260510140100 77 141 0.0 1.0 0.00 0.00 0.00 45 1014.5
20260510134559 75 87 0.0 2.0 0.00 0.00 0.00 46 1014.5
20260510133059 76 79 0.0 2.0 0.00 0.00 0.00 43 1014.6
20260510131559 76 71 0.0 3.0 0.00 0.00 0.00 43 1014.6
20260510130057 75 54 0.0 3.0 0.00 0.00 0.00 44 1014.7
20260510124602 76 84 0.0 2.0 0.00 0.00 0.00 41 1014.9
20260510123058 75 82 0.0 5.0 0.00 0.00 0.00 42 1015.1
20260510121555 76 30 0.0 3.0 0.00 0.00 0.00 39 1015.2
20260510120055 76 76 0.0 2.0 0.00 0.00 0.00 38 1015.2
20260510114553 77 76 0.0 3.0 0.00 0.00 0.00 39 1015.4
20260510113053 77 87 0.0 3.0 0.00 0.00 0.00 40 1015.5
20260510111551 76 82 0.0 2.0 0.00 0.00 0.00 43 1015.6
20260510110049 75 112 0.0 2.0 0.00 0.00 0.00 44 1015.7
20260510104551 75 86 0.0 2.0 0.00 0.00 0.00 47 1015.8
20260510103048 76 75 0.0 2.0 0.00 0.00 0.00 48 1016.0
20260510101546 75 65 0.0 1.0 0.00 0.00 0.00 48 1016.2
20260510100105 74 178 0.0 3.0 0.00 0.00 0.00 48 1016.1
20260510094555 74 65 0.0 2.0 0.00 0.00 0.00 51 1016.0
20260510093040 74 144 0.0 2.0 0.00 0.00 0.00 52 1016.1
20260510091539 74 109 0.0 3.0 0.00 0.00 0.00 51 1016.0
20260510090045 74 142 0.0 0.0 0.00 0.00 0.00 54 1015.9
20260510084536 72 145 0.0 0.0 0.00 0.00 0.00 57 1016.0
20260510083032 70 148 0.0 2.0 0.00 0.00 0.00 60 1016.0
20260510081544 69 119 0.0 2.0 0.00 0.00 0.00 62 1016.1
20260510080031 70 61 0.0 2.0 0.00 0.00 0.00 63 1015.7
20260510074526 69 92 1.0 5.0 0.00 0.00 0.00 64 1015.8
20260510073025 68 49 0.0 4.0 0.00 0.00 0.00 67 1015.8
20260510071524 67 74 1.0 6.0 0.00 0.00 0.00 71 1015.7
20260510070029 67 76 1.0 4.0 0.00 0.00 0.00 74 1015.8
20260510064520 66 59 1.0 7.0 0.00 0.00 0.00 78 1015.8
20260510063018 65 85 0.0 4.0 0.00 0.00 0.00 80 1016.0
20260510061516 66 62 0.0 3.0 0.00 0.00 0.00 79 1015.8
20260510060016 66 78 0.0 2.0 0.00 0.00 0.00 79 1015.7
20260510054513 65 69 0.0 2.0 0.00 0.00 0.00 79 1015.3
20260510053012 65 67 0.0 2.0 0.00 0.00 0.00 81 1015.1
20260510051511 64 68 0.0 1.0 0.00 0.00 0.00 81 1015.1
20260510050011 64 78 0.0 1.0 0.00 0.00 0.00 82 1015.4
20260510044513 64 76 0.0 2.0 0.00 0.00 0.00 81 1015.2
20260510043009 64 69 0.0 4.0 0.00 0.00 0.00 80 1014.7
20260510041512 64 71 0.0 2.0 0.00 0.00 0.00 80 1014.8
20260510040011 64 55 0.0 3.0 0.00 0.00 0.00 81 1014.8
20260510034506 63 66 0.0 2.0 0.00 0.00 0.00 82 1014.6
20260510033004 62 39 0.0 2.0 0.00 0.00 0.00 83 1014.9
20260510031502 63 32 0.0 0.0 0.00 0.00 0.00 83 1016.8
20260510030104 63 267 0.0 1.0 0.00 0.00 0.00 81 1017.0
20260510024558 63 303 0.0 0.0 0.00 0.00 0.00 80 1017.0
20260510023056 63 62 0.0 2.0 0.00 0.00 0.00 80 1016.8
20260510021554 64 53 0.0 0.0 0.00 0.00 0.00 76 1017.1
20260510020054 64 162 0.0 0.0 0.00 0.00 0.00 76 1017.4
20260510014553 65 186 0.0 0.0 0.00 0.00 0.00 74 1017.2
20260510013052 65 271 0.0 11.0 0.00 0.00 0.00 71 1018.1
20260510011551 65 286 3.0 16.0 0.00 0.00 0.00 69 1018.4
20260510010049 65 76 0.0 2.0 0.00 0.00 0.00 70 1016.4
20260510004547 64 64 0.0 5.0 0.00 0.00 0.00 70 1015.6
20260510003146 64 65 0.0 0.0 0.00 0.00 0.00 70 1015.6
20260510001545 65 87 0.0 0.0 0.00 0.00 0.00 70 1015.6